Regional Weather Roundup
Issued by NWS

Home | Current Version | Previous Version | Text Only | Print | Product List | Glossary On
Versions: 1 2 3 4 5 6 7 8 9 10 11 12 13 14 15 16 17 18 19 20 21 22 23 24 25 26 27 28 29 30 31 32 33 34 35 36 37 38 39 40 41 42 43 44 45 46 47 48 49 50
000
ASUS45 KTFX 301910
RWRMT
MONTANA REGIONAL WEATHER ROUNDUP
NATIONAL WEATHER SERVICE GREAT FALLS MT
100 PM MDT THU JUL 30 2015

NOTE: "FAIR" INDICATES FEW OR NO CLOUDS BELOW 12000 FEET WITH NO
SIGNIFICANT WEATHER AND/OR OBSTRUCTIONS TO VISIBILITY.

MTZ001>007-043-302000-
WEST OF THE DIVIDE

CITY           SKY/WX    TMP DP  RH WIND       PRES   REMARKS
KALISPELL      CLEAR     83  39  21 S12       30.22F
MISSOULA       SUNNY     78  39  24 CALM      30.27F
BUTTE          SUNNY     77  36  22 VRB5      30.38F
MULLAN PASS    SUNNY     72  32  23 CALM      30.41S
DEER LODGE       N/A     79  36  21 CALM      30.37F
EUREKA           N/A     82  41  23 W5        30.20F
HAMILTON         N/A     77  45  31 NE2       30.27F
LIBBY            N/A     82  41  23 NW3       30.19F
$$

MTZ008-052>055-302000-
SOUTHWEST MONTANA

CITY           SKY/WX    TMP DP  RH WIND       PRES   REMARKS
BOZEMAN        SUNNY     79  43  27 CALM      30.33F
DILLON         SUNNY     77  42  28 CALM      30.35F
W YELLOWSTONE  SUNNY     73  34  23 SW12      30.46F
$$

MTZ009-010-012-014-046-048-049-054-302000-
EAST SLOPES AND CENTRAL MONTANA

CITY           SKY/WX    TMP DP  RH WIND       PRES   REMARKS
CUT BANK       MOSUNNY   84  31  14 W12G18    30.23F
GREAT FALLS    SUNNY     83  34  17 MISG      30.26F
MALMSTROM AFB  SUNNY     81  34  18 SW6G15    30.26F
HELENA         SUNNY     81  44  27 NE6       30.28F
CONRAD           N/A     83  42  23 SE6       30.25F
$$

MTZ011-013-016-021-045-047-050-051-302000-
NORTH CENTRAL MONTANA

CITY           SKY/WX    TMP DP  RH WIND       PRES   REMARKS
HAVRE          SUNNY     82  45  27 W8        30.21F
LEWISTOWN      SUNNY     81  38  21 NW9       30.30F
CHINOOK          N/A     81  48  32 N6        30.20F
FORT BENTON      N/A     84  36  17 S7        30.23F
$$

MTZ017>020-022>027-061-062-302000-
NORTHEAST MONTANA

CITY           SKY/WX    TMP DP  RH WIND       PRES   REMARKS
GLASGOW        SUNNY     82  44  26 W8        30.20F
JORDAN           N/A     84  43  23 NW6       30.21F
SIDNEY         SUNNY    N/A N/A N/A NW9       30.18F
WOLF POINT     SUNNY     85  43  22 W10       30.19F
PLENTYWOOD       N/A     77  45  31 NW12G21   30.19F
POPLAR           N/A     81  46  30 CALM      30.19F
$$

MTZ028>42-056>058-302000-
SOUTHCENTRAL AND SOUTHEAST MONTANA

CITY           SKY/WX    TMP DP  RH WIND       PRES   REMARKS
BAKER          SUNNY     86  41  20 NW13G18   30.23F
BILLINGS       MOSUNNY   83  38  20 S9        30.28F
LIVINGSTON     SUNNY     84  39  20 SW8G17    30.30F
MILES CITY     SUNNY     87  42  20 VRB6      30.20F
EKALAKA          N/A     83  38  20 W14       30.22
FORSYTH          N/A     84  39  20 SW8       30.21F
LAUREL           N/A     85  38  18 S5        30.23F
$$

REGIONAL REPORTS...DAKOTAS

CITY           SKY/WX    TMP DP  RH WIND       PRES   REMARKS
WILLISTON      SUNNY     83  44  25 NW12G21   30.18F
MINOT          SUNNY     81  47  30 W24       30.11F
DICKINSON      SUNNY     81  49  32 N8        30.19S
BEACH          FAIR      81  39  22 NW13      30.22F
CROSBY         FAIR      77  50  38 NW13G22   30.18S
BISMARCK       SUNNY     83  53  35 N13G18    30.15S
GRAND FORKS    MOSUNNY   81  54  39 W18G28    30.00S
FARGO          SUNNY     82  55  39 W21       30.04F
BUFFALO SD       N/A     87  40  19 W14G21    30.16F
RAPID CITY     SUNNY     85  45  24 N8        30.25F
$$

REGIONAL REPORTS...WYOMING/IDAHO/WASHINGTON

CITY           SKY/WX    TMP DP  RH WIND       PRES   REMARKS
GILLETTE       SUNNY     83  36  18 S10G16    30.31F
SHERIDAN       SUNNY     85  36  17 SW3       30.29F
BUFFALO WY     SUNNY     82  35  18 SE7       30.35F
CODY           SUNNY     81  34  18 E10G17    30.34F
YELLOWSTONE LA   N/A     67  41  38 VRB5      30.56F
IDAHO FALLS    SUNNY     82  35  18 W8        30.35F
SALMON         SUNNY     75  43  31 N3        30.28F
BOISE          SUNNY     89  33  13 E5        30.22F
SPOKANE        SUNNY     88  33  14 S9        30.18F
$$

REGIONAL REPORTS...ALBERTA

CITY           SKY/WX    TMP DP  RH WIND       PRES   REMARKS
EDMONTON       MOSUNNY   70  45  40 W8        30.17S
CALGARY        MOSUNNY   75  37  25 VRB7      30.22F
LETHBRIDGE     MOSUNNY   77  46  33 NE3       30.20F
MEDICINE HAT   MOSUNNY   79  46  31 SW6       30.20F
WATERTON GATE    N/A     79  39  24 SW15G23     N/A
MILK RIVER       N/A     84  36  17 W9G17       N/A
ONEFOUR          N/A     79  43  27 S2          N/A
$$

REGIONAL REPORTS...SASKATCHEWAN

CITY           SKY/WX    TMP DP  RH WIND       PRES   REMARKS
SWIFT CURRENT  MOSUNNY   75  41  29 NW10      30.21S
REGINA         MOSUNNY   75  50  41 W20       30.16F
SASKATOON      PTSUNNY   72  45  37 NW16      30.13S
CYPRESS HILLS    N/A     72  45  37 NW6         N/A
VAL MARIE        N/A     79  46  31 NW7         N/A
ROCKGLEN         N/A     73  46  38 NW8         N/A
$$



USA.gov is the U.S. government's official web portal to all federal, state and local government web resources and services.